Location: Unspecified
(56.5167°N, 0.0000°E)
Time: 00:56:26
(UTC+02:00)

Cosmos 1674 - Visible Passes

Search period start: 20 September 2018 00:00
Search period end: 30 September 2018 00:00
Orbit: 497 x 520 km, 82.5° (Epoch: 19 September)

Date Brightness Start Highest point End Pass type
(mag) Time Alt. Az. Time Alt. Az. Time Alt. Az.
20 Sep 3.7 21:09:34 10° N 21:13:00 29° ENE 21:15:41 14° ESE visible
20 Sep 4.1 22:45:05 10° NNW 22:48:38 35° W 22:50:34 21° SW visible
21 Sep 3.9 20:52:25 10° N 20:55:41 25° ENE 20:58:50 10° ESE visible
21 Sep 3.8 22:27:44 10° NNW 22:31:26 43° W 22:33:42 20° SSW visible
22 Sep 4.1 20:35:18 10° NNE 20:38:19 21° ENE 20:41:20 10° ESE visible
22 Sep 3.4 22:10:25 10° NNW 22:14:12 54° W 22:16:54 18° S visible
23 Sep 3.0 21:53:07 10° NNW 21:56:58 67° W 22:00:07 15° S visible
24 Sep 2.7 21:35:50 10° NNW 21:39:43 82° W 21:43:26 11° S visible
24 Sep 5.8 23:13:18 10° WNW 23:14:37 11° W 23:15:55 10° W visible
25 Sep 2.6 21:18:34 10° N 21:22:28 81° E 21:26:20 10° SSE visible
25 Sep 5.7 22:55:27 10° NW 22:57:27 14° W 22:59:29 10° WSW visible
26 Sep 2.7 21:01:19 10° N 21:05:11 66° ENE 21:09:02 10° SSE visible
26 Sep 5.6 22:37:49 10° NW 22:40:18 17° W 22:42:48 10° SW visible
27 Sep 2.8 20:44:05 10° N 20:47:54 54° ENE 20:51:42 10° SSE visible
27 Sep 5.3 22:20:17 10° NW 22:23:09 20° W 22:25:59 10° SW visible
28 Sep 3.1 20:26:51 10° N 20:30:36 44° ENE 20:34:19 10° SE visible
28 Sep 5.1 22:02:49 10° NW 22:05:58 24° W 22:09:05 10° SW visible
29 Sep 4.8 21:45:24 10° NNW 21:48:46 28° W 21:52:07 10° SSW visible
